Location: Kitchener-Waterloo
(43.4500°N, 80.5000°W)
Time: 05:35:43
(UTC-04:00)

Daily predictions for brighter satellites

Satellite Brightness Start Highest point End
(mag) Time Altitude Azimuth Time Altitude Azimuth Time Altitude Azimuth
CZ-2C R/B 3.0 00:02:04 10° NNE 00:06:35 63° N 00:06:35 63° N
Cosmos 2369 Rocket 3.5 00:03:03 10° NW 00:07:34 29° W 00:07:34 29° W
CZ-4C R/B 4.2 00:05:22 10° W 00:09:57 26° NNW 00:15:07 10° NNE
H-2A R/B 4.0 00:14:36 26° NNE 00:14:36 26° NNE 00:17:07 10° N
Tsikada Rocket 4.5 00:14:56 10° N 00:20:26 51° ENE 00:20:26 51° ENE
USA 234 3.5 00:20:54 55° ENE 00:21:57 62° NNE 00:28:23 10° NW
ATLAS 5 CENTAUR R/B 3.6 00:17:36 10° NW 00:22:00 31° W 00:22:00 31° W
Meteor 1-11 Rocket 4.3 00:21:26 10° NNW 00:25:58 51° NW 00:25:58 51° NW
Meteor 1-27 Rocket 4.3 00:33:56 55° NW 00:33:56 55° NW 00:39:08 10° N
SeaSat 1 3.9 00:35:48 32° NE 00:35:48 32° NE 00:39:32 10° N
Mayak 1.1 00:33:26 10° NNE 00:34:50 20° NNE 00:34:50 20° NNE
ALOS 2 4.4 00:44:02 29° N 00:44:02 29° N 00:46:15 10° N
Lacrosse 4 Rocket 4.1 00:43:35 10° N 00:46:10 15° NE 00:46:10 15° NE
Cosmos 2233 Rocket 4.4 01:00:04 56° NE 01:00:04 56° NE 01:05:01 10° NNE
USA 267 4.3 01:24:43 10° NE 01:30:46 42° NNW 01:35:30 17° W
ADEOS Rocket 3.2 01:31:30 10° N 01:37:36 69° NNW 01:37:36 69° NNW
Cosmos 1607 4.5 01:46:10 53° ENE 01:46:10 53° ENE 01:51:17 10° NE
BREEZE-M R/B 4.4 01:44:08 60° W 01:45:12 71° NNW 01:50:56 10° ENE
Cosmos 1980 Rocket 3.6 01:47:19 10° N 01:52:16 31° NE 01:53:21 29° ENE
Cosmos 1697 Rocket 3.4 01:47:29 10° NNW 01:52:32 49° NE 01:52:32 49° NE
Meteor 2-4 Rocket 4.5 01:55:42 45° NE 01:55:42 45° NE 01:59:34 10° NNE
Cosmos 2278 4.3 01:51:40 10° NNW 01:56:01 53° N 01:56:01 53° N
Cosmos 1656 4.3 01:56:21 10° NNW 02:00:35 52° NNW 02:00:35 52° NNW
COSMOS 2406 4.4 02:04:48 33° NW 02:04:48 33° NW 02:09:50 10° N
Cosmos 2082 Rocket 2.9 02:09:34 48° ENE 02:09:34 48° ENE 02:13:51 10° NNE
Lacrosse 5 rocket 3.6 02:14:51 24° NE 02:14:51 24° NE 02:16:35 10° NE
SeaSat 1 4.5 02:15:35 19° NW 02:15:35 19° NW 02:17:09 10° NW
Mayak 1.5 02:10:23 10° NNW 02:11:28 13° NW 02:11:28 13° NW
Lacrosse 4 Rocket 3.7 02:21:02 10° NNW 02:22:28 20° NNW 02:22:28 20° NNW
Cosmos 2034 Rocket 4.0 02:26:42 75° NNW 02:26:42 75° NNW 02:32:29 10° N
Cosmos 1092 Rocket 4.1 02:25:32 10° N 02:31:46 65° E 02:32:05 64° E
Cosmos 1833 Rocket 2.9 02:35:53 64° N 02:35:53 64° N 02:40:48 10° NNE
MOS 1 Rocket 4.2 02:34:17 10° N 02:37:48 48° N 02:37:48 48° N
CZ-4B R/B 4.3 02:47:19 15° NNW 02:47:19 15° NNW 02:48:03 10° NNW
Iridium 4 Rocket 4.2 02:48:26 43° NE 02:48:26 43° NE 02:52:04 10° NNE
Cosmos 1025 Rocket 4.1 02:59:22 43° NNE 02:59:22 43° NNE 03:02:18 10° N
SJ 16-02 4.4 02:56:40 10° NNE 02:58:23 12° NE 03:00:06 10° ENE
CBERS-1 4.4 02:57:24 10° NNE 03:02:18 57° E 03:02:18 57° E
Cosmos 44 4.1 02:57:19 10° NNW 03:02:28 55° NE 03:04:20 36° ESE
CZ-2D R/B 2.8 02:57:42 10° NNE 03:02:48 43° E 03:03:15 42° ESE
Cosmos 1898 Rocket 3.6 02:59:27 10° NNW 03:04:42 71° ENE 03:04:42 71° ENE
Nadezhda 4 Rocket 4.4 02:59:21 10° NNW 03:04:41 48° WNW 03:04:41 48° WNW
Cosmos 1937 Rocket 4.0 03:03:30 10° NNW 03:08:36 55° ENE 03:09:38 47° ESE
SL-16 R/B 2.6 03:11:16 49° SE 03:13:02 77° ENE 03:19:19 10° NNW
USA 238 DEB 4.0 03:12:04 46° SSE 03:13:17 52° ESE 03:19:59 10° NE
USA 238 4.1 03:12:10 46° SSE 03:13:23 51° ESE 03:20:05 10° NE
Cosmos 2208 Rocket 4.0 03:16:00 78° NW 03:16:00 78° NW 03:21:05 10° NNE
Cosmos 2360 4.4 03:10:43 10° NNW 03:15:28 56° WNW 03:15:28 56° WNW
IRS-1C 4.4 03:11:24 10° NNE 03:16:41 58° E 03:17:15 55° SE
Cosmos 990 Rocket 4.2 03:12:00 10° NNW 03:17:09 65° ENE 03:18:02 55° ESE
SL-08 R/B 3.4 03:18:15 79° NE 03:18:15 79° NE 03:23:01 10° NNW
Cosmos 468 Rocket 3.9 03:20:22 87° SE 03:20:25 87° ESE 03:25:46 10° NNE
Cosmos 1634 Rocket 3.9 03:22:05 66° SW 03:22:47 72° W 03:29:04 10° N
Cosmos 1570 Rocket 4.2 03:24:17 60° WNW 03:24:17 60° WNW 03:29:31 10° NNE
Resurs 1-4 Rocket 2.1 03:19:38 10° NNE 03:24:54 70° ESE 03:25:27 64° SE
Cosmos 1066 Rocket 3.9 03:26:28 78° WSW 03:26:43 81° W 03:32:08 10° N
Cosmos 1766 4.1 03:24:11 10° N 03:27:26 48° NE 03:27:26 48° NE
Cosmos 2279 Rocket 4.0 03:29:32 53° S 03:31:06 81° E 03:37:24 10° N
ARIANE 5 R/B 3.2 03:27:05 10° NNE 03:32:12 50° E 03:33:28 41° SE
AQUA 3.7 03:28:51 10° NNE 03:33:36 82° WNW 03:33:36 82° WNW
Cosmos 2360 Rocket 4.1 03:28:51 10° N 03:33:43 29° NE 03:38:32 10° ESE
Cosmos 1814 Rocket 4.0 03:34:01 64° SSE 03:34:34 70° ESE 03:39:45 10° NNE
Cosmos 1980 Rocket 2.9 03:31:06 10° NW 03:35:04 37° WNW 03:35:04 37° WNW
Cosmos 1697 Rocket 4.4 03:32:08 10° NW 03:34:14 19° WNW 03:34:14 19° WNW
Cosmos 2026 Rocket 4.0 03:31:23 10° NNW 03:37:40 65° W 03:38:44 56° SW
Spot 4 Rocket 4.3 03:36:52 10° NNE 03:42:01 64° ESE 03:43:15 48° SSE
IRS-P3 4.2 03:41:21 10° N 03:46:36 58° WNW 03:47:15 54° WSW
H-2A R/B 3.0 03:43:09 10° N 03:47:06 51° WNW 03:47:06 51° WNW
Cosmos 44 Rocket 3.3 03:43:41 10° NNW 03:48:51 87° NE 03:53:12 15° SSE
NOSS 3-2 (C) 4.4 03:48:15 27° SSE 03:50:38 37° ESE 03:56:28 10° NE
ATLAS 3B R/B 2.8 03:48:15 43° SSW 03:50:48 77° ESE 03:57:44 10° NE
SAR-Lupe-2 4.0 03:52:51 58° N 03:52:51 58° N 03:55:47 10° NNW
Lacrosse 5 rocket 3.6 03:50:30 14° NW 03:52:16 18° NNW 03:55:09 10° NNE
Cosmos 2082 Rocket 3.7 03:51:24 21° WNW 03:52:49 23° NW 03:57:15 10° N
SL-16 R/B 2.1 03:49:30 10° NNW 03:55:13 89° W 03:59:31 18° SSE
Cosmos 841 Rocket 3.5 03:54:06 53° S 03:55:19 78° ESE 04:00:33 10° NNE
deb Kosmos-1763 4.2 03:55:54 72° N 03:55:54 72° N 03:59:19 10° NNE
Cosmos 2150 Rocket 4.0 03:50:09 10° NNW 03:55:38 81° WSW 03:57:54 37° S
Cosmos 540 Rocket 4.3 03:53:58 30° SSE 03:55:58 45° ESE 04:00:52 10° NNE
ATLAS CENTAUR R/B 3.1 03:53:08 10° NNW 03:57:14 37° NE 04:01:33 10° ESE
NPP 4.2 03:54:24 10° N 03:59:28 42° WNW 04:00:20 39° W
Cosmos 1726 Rocket 3.9 03:58:57 10° NNW 04:02:42 48° WNW 04:02:42 48° WNW
Cosmos 2298 Rocket 4.0 03:59:10 10° NNW 04:04:25 60° WSW 04:05:38 47° SSW
NOSS 3-2 (A) 3.6 04:02:16 38° S 04:04:34 65° ESE 04:11:01 10° NE
DNEPR-1 R/B 3.7 04:05:15 53° S 04:06:00 64° ESE 04:10:33 10° NE
IRS-1D 3.6 04:01:25 10° N 04:06:34 62° WNW 04:07:56 46° SW
Meteor 1-21 4.1 04:05:20 40° SSW 04:07:29 87° W 04:13:07 10° N
Cosmos 2322 Rocket 2.0 04:02:09 10° NNW 04:07:48 76° WSW 04:12:13 17° SSE
CENTAUR R/B 4.3 04:03:33 10° SSE 04:07:56 22° ESE 04:12:44 10° ENE
Cosmos 1758 3.7 04:05:50 10° N 04:09:47 61° E 04:11:42 28° SSE
Cosmos 2228 3.1 04:09:22 10° NNW 04:13:30 50° W 04:13:30 50° W
Cosmos 2266 Rocket 3.9 04:07:53 10° N 04:14:01 85° E 04:19:33 13° S
Cosmos 1763 Rocket 3.9 04:16:30 38° WSW 04:17:56 48° WNW 04:23:06 10° N
BREEZE-M R/B 2.7 04:19:05 56° W 04:19:38 70° NNW 04:24:52 10° ENE
UNKNOWN OBJECT B 2.7 04:16:01 10° NNE 04:19:51 78° ESE 04:20:49 48° S
Cosmos 1470 3.6 04:17:37 10° N 04:21:31 51° ENE 04:25:14 11° SSE
MOZ.5/SAFIR/RUBIN 5/SL-8 4.2 04:22:29 39° WSW 04:22:56 40° W 04:27:25 10° NNW
Cosmos 1812 Rocket 4.3 04:19:03 10° N 04:23:28 54° E 04:27:48 10° SSE
Timation 2 Rocket 4.1 04:21:50 34° WSW 04:24:15 55° WNW 04:30:09 10° NNE
Cosmos 1602 Rocket 3.5 04:26:34 29° S 04:28:42 78° E 04:33:02 10° N
Cosmos 1707 3.8 04:26:45 16° SSE 04:29:31 42° E 04:33:13 10° NNE
Cosmos 292 Rocket 3.8 04:27:55 38° SW 04:29:36 64° WNW 04:34:23 10° NNE
Aureole 2 Rocket 2.6 04:26:45 10° NNW 04:30:30 75° ENE 04:33:55 10° SSE
Cosmos 2058 Rocket 3.8 04:31:06 10° NNW 04:35:04 33° W 04:35:31 32° WSW
ADEOS 3.5 04:30:53 10° N 04:36:06 76° WNW 04:39:10 25° SSW
Cosmos 1842 4.0 04:37:01 32° W 04:37:30 34° WNW 04:41:09 10° N
SJ 16-02 1.2 04:33:09 10° NNW 04:37:35 80° WSW 04:42:00 10° SSE
Cosmos 1626 Rocket 3.4 04:37:27 32° SSW 04:39:24 71° W 04:43:44 10° N
ERBS 2.2 04:39:43 47° SSW 04:40:34 78° SE 04:43:58 10° NE
ADEOS II 2.2 04:36:51 10° NNE 04:42:08 77° ESE 04:46:33 15° S
CZ-2D R/B 3.3 04:38:13 10° N 04:42:38 27° WNW 04:44:34 21° W
Helios 1A Rocket 3.4 04:38:53 10° N 04:42:52 45° WNW 04:44:19 31° WSW
PSLV R/B 3.3 04:49:20 41° SSW 04:49:45 45° S 04:52:37 10° E
Gblst 52 Del rocket 4.4 04:45:10 10° WNW 04:50:58 63° SW 04:57:34 10° SE
Cosmos 2322 3.7 04:51:30 10° NNW 04:57:16 89° ENE 05:02:59 10° SSE
SL-16 R/B 3.9 04:56:21 17° W 04:57:17 18° W 05:01:22 10° NW
Cosmos 1125 Rocket 3.5 04:54:22 10° NNW 04:59:37 63° WSW 05:04:49 10° S
Cosmos 2237 4.2 04:54:05 10° NNW 04:59:51 89° ENE 05:05:34 10° SSE
CZ-4B R/B 4.2 04:59:20 10° NNE 05:03:12 38° E 05:06:51 10° SSE
Resurs 1-4 Rocket 3.8 05:00:48 10° NNW 05:04:09 17° WNW 05:06:32 13° W
USA 238 DEB 4.5 04:59:30 17° WSW 05:04:26 40° NW 05:10:59 10° NNE
USA 238 4.5 04:59:36 17° WSW 05:04:32 40° NW 05:11:05 10° NNE
Cosmos 372 Rocket 4.1 04:59:30 10° NNW 05:04:34 52° WSW 05:09:32 10° S
CZ-2D R/B 4.4 05:04:18 10° N 05:07:56 31° WNW 05:10:08 19° WSW
Cosmos 1733 4.1 05:06:01 10° NNW 05:09:25 30° W 05:11:29 18° SW
ARIANE 5 R/B 3.9 05:06:55 10° NNW 05:10:57 23° WNW 05:13:48 15° WSW
USA 161 4.4 05:09:55 10° ESE 05:12:13 21° ENE 05:14:27 10° NNE
BREEZE-M DEB (TANK) 1.5 05:12:32 26° SW 05:13:35 69° SSE 05:16:08 10° ENE
Cosmos 1953 3.3 05:12:57 10° NNW 05:16:30 29° W 05:19:21 14° SW
Cosmos 2360 Rocket 2.4 05:12:32 10° NW 05:17:55 47° WSW 05:23:15 10° S
Cosmos 1400 Rocket 3.8 05:14:24 10° S 05:18:11 48° E 05:22:04 10° NNE
Cosmos 1825 Rocket 3.5 05:25:36 10° SSW 05:29:53 64° W 05:34:12 10° N
Lacrosse 5 rocket 4.1 05:31:19 10° NNW 05:32:53 12° N 05:34:27 10° NNE
Cosmos 2219 3.7 05:29:04 10° S 05:34:42 65° ESE 05:40:24 10° NNE
Cosmos 1553 Rocket 4.1 05:29:06 10° S 05:35:31 81° W 05:41:57 10° N
ATLAS CENTAUR R/B 2.4 05:32:16 10° NW 05:36:08 29° WSW 05:40:11 10° S
ATLAS 5 CENTAUR R/B 4.4 05:32:11 10° SW 05:38:02 13° SSW 05:41:36 10° S
SL-16 R/B 3.9 05:36:10 10° WNW 05:38:26 12° W 05:40:41 10° WSW
NOSS 3-2 (C) 4.1 05:35:42 10° WSW 05:41:23 45° NW 05:47:49 10° NNE
MOS 1-B 4.4 05:35:40 10° NNE 05:41:30 79° WNW 05:47:17 10° SSW
ATLAS 3B R/B 3.9 05:36:02 10° W 05:42:09 30° NW 05:48:05 10° NNE
PSLV R/B 3.7 05:38:20 10° N 05:42:27 53° WNW 05:46:31 10° SSW
Cosmos 2219 Rocket 2.3 05:36:52 10° NNW 05:42:30 82° ENE 05:48:05 10° SSE
CZ-4C R/B 4.2 05:36:12 10° NNW 05:42:53 44° NE 05:50:23 10° ESE
Okean O Rocket 2.0 05:41:21 10° NNE 05:45:41 67° ESE 05:49:59 10° S
Cosmos 2333 Rocket 2.5 05:40:07 10° NNW 05:45:48 76° ENE 05:51:29 10° SSE
Cosmos 2227 Rocket 3.9 05:42:11 10° SSE 05:47:11 34° ESE 05:52:12 10° NE
Cosmos 2333 4.2 05:43:07 10° NNW 05:48:39 60° WSW 05:54:10 10° S
Cosmos 2297 Rocket 4.1 05:44:26 10° SSE 05:49:19 31° ESE 05:54:14 10° NE
Meteor 2-5 Rocket 3.9 05:44:53 10° SSW 05:50:19 57° WNW 05:55:53 10° N
COSMOS 2428 2.7 05:45:14 10° NNW 05:50:51 61° WSW 05:56:24 10° S
Cosmos 2237 Rocket 3.4 05:45:31 10° NNW 05:51:02 49° ENE 05:56:32 10° SE
CENTAUR R/B 2.7 05:51:45 10° SW 05:57:44 70° NW 06:04:43 10° NE
